Weather Roundup
Issued by NWS Corpus Christi, TX

Home | Current Version | Previous Version | Text Only | Print | Product List | Glossary On
Versions: 1 2 3 4 5 6 7 8 9 10 11 12 13 14 15 16 17 18 19 20 21 22 23 24 25 26 27 28 29 30 31 32 33 34 35 36 37 38 39 40 41 42 43 44 45 46 47 48 49 50
470
ASUS44 KCRP 090610
HRRCRP

SOUTH TEXAS REGIONAL WEATHER ROUNDUP
NATIONAL WEATHER SERVICE CORPUS CHRISTI TX
1200 AM CST TUE FEB 09 2016


TXZ229>244-090700-
...CORPUS CHRISTI AREA OBSERVATIONS...

CITY           SKY/WX    TMP DP  RH WIND       PRES   REMARKS
CORPUS CHRISTI MOCLDY    47  23  38 W3        30.36S
NAS CORPUS CHR PTCLDY    49  41  74 W5        30.36S
ROCKPORT       PTCLDY    49  35  58 CALM      30.36R
KINGSVILLE NAS CLOUDY    47  32  56 W6        30.36F
ALICE            N/A     47  27  45 NW7       30.36S
FALFURRIAS     CLOUDY    49  28  44 W3        30.38S
$$

...VICTORIA AREA OBSERVATIONS...

CITY           SKY/WX    TMP DP  RH WIND       PRES   REMARKS
VICTORIA       CLOUDY    40  29  64 NW8       30.35S
BEEVILLE       FAIR      50  26  39 NW5       30.36S
PLEASANTON     CLOUDY    41  26  56 NW5       30.37F
SAN ANTONIO    CLEAR     40  25  55 NW7       30.36S
$$

...LAREDO AREA OBSERVATIONS...

CITY           SKY/WX    TMP DP  RH WIND       PRES   REMARKS
LAREDO         CLOUDY    53  22  29 W5        30.40R
COTULLA        CLOUDY    46  22  38 W6        30.38S
DEL RIO        PTCLDY    40  27  59 CALM      30.39S
MCALLEN        CLOUDY    51  41  68 CALM      30.39F
HEBBRONVILLE   NOT AVBL
$$

...OTHER TEXAS OBSERVATIONS...

CITY           SKY/WX    TMP DP  RH WIND       PRES   REMARKS
BROWNSVILLE    CLOUDY    48  42  80 CALM      30.39S
HOUSTON        PTCLDY    45  16  31 W6        30.30R
COL. STATION   CLEAR     40  19  43 W5        30.32S
AUSTIN         CLEAR     41  23  48 W7        30.34F
WACO           CLEAR     37  17  44 W10       30.32R WCI  30
FORT WORTH     CLEAR     43   8  23 N13       30.28S
WICHITA FALLS  CLEAR     37   9  31 NW12      30.33R WCI  29
LUBBOCK        CLOUDY    30  18  60 W7        30.38F
EL PASO        CLEAR     44  14  29 NE6       30.35F
$$

...MARINE OBSERVATIONS...

STATION/POSITION TIME  SKY/WX   TEMP    WIND        PRES    VSBY  WAVE   SWELL
                                AIR SEA DIR/SP/G                  HT/PER HT/PER
                 (UTC)          (F)     (DEG/KT/KT) (MB)    (MI)  (FT/S) (FT/S)
PORT ARANSAS     0600            56 58  310/  6/  7 1028.6S
BUOY 90 E PORT A 0550            62 69  330/ 19/ 21 1026.6R         5/ 5
BUOY 45 SE BAFFI 0550            64 69  320/ 10/ 14 1027.9S         3/ 6   2/ 6
BUOY 200 E PT IS 0550                                 N/A           8/ 8
BUOY 15 E GALVES 0550            57 57  300/ 19/ 23 1025.3R         2/ 3
$$




USA.gov is the U.S. government's official web portal to all federal, state and local government web resources and services.